sat.trackr.live / text

‹ back to catalog

RASSVET-3 12

NORAD 68371 · 2026-061M

PAYLOAD ACTIVE UNKNOWN

§ Identity

Operator
Country
CIS
Launch date
2026-03-23
Launch site
PLMSC
Launch vehicle
Mass (kg)
RCS (m²)

External: N2YO · Heavens-Above · Gunter

§ Orbital elements

Epoch: 2026-09-19T18:36:36.549792Z

Period
94.83 min
Inclination
82.2917°
Eccentricity
0.0002942
Mean motion
15.18445668 rev/d
Perigee alt
508.5 km
Apogee alt
512.6 km
Semi-major
6,888.7 km
B*
1.0756e-4
RAAN
278.2500°
Arg perigee
77.0610°
Mean anomaly
283.0952°
Rev number
2,776

§ Raw data

RASSVET-3 121 68371U 26061M   26262.77542303  .00002244  00000+0  10756-3 0  99922 68371  82.2917 278.2500 0002942  77.0610 283.0952 15.18445668 27767

JSON: /api/v1/satellites/68371 · /tle

For live sub-satellite position, see the globe view (requires WebGL).

§ Visibility from observer

Set your observer location to see the next 7 days of passes ≥ 10°. The values pass through the URL so the page stays shareable.

No JS? Fill the form by hand. The geolocation button needs JavaScript.